Location: Béaulencourt
(50.0796°N, 2.8795°E)
Time: 03:50:26
(UTC+00:00)

ARIANE 6 FM1 Upper Stage - Pass Details

Date: 20 March 2026
Orbit: 525 x 604 km, 62.0° (Epoch: 17 April)

Event Time Altitude Azimuth Distance (km) Brightness Sun altitude
Exits shadow 02:45:41 35° 41° (NE) 888 4.1 -28.5°
Drops below altitude 10° 02:48:04 10° 45° (NE) 1,790 6.2 -28.2°
Sets 02:50:15 0° 46° (NE) 2,676 7.4 -27.9°
